TIANWANG 1A (TW-1A)
1 40928U 15051D   19257.74357536  .00002398  00000-0  59670-4 0  9992
2 40928  97.1399 287.0904 0012345 108.3697 343.8814 15.41170740222739
LAPAN A2
1 40931U 15052B   19257.08749554  .00000564  00000-0 -10699-4 0  9991
2 40931   5.9998 153.3965 0013814 314.6669  45.2414 14.76612440214207
LQSAT
1 40958U 15057A   19257.79951106 +.00000002 +00000-0 +79020-5 0  9991
2 40958 097.8917 324.5836 0017218 322.0807 037.9188 14.73088391211780
CHUBUSAT 2
1 41338U 16012B   19257.52096174 +.00000288 +00000-0 +15597-4 0  9996
2 41338 031.0035 306.5967 0013819 253.4567 106.4551 15.00177712196114
CHUBUSAT 3
1 41339U 16012C   19257.81286865  .00000261  00000-0  13510-4 0  9991
2 41339  31.0115 302.7186 0013732 264.4008  95.5075 15.00351192196150
OUFTI-1
1 41458U 16025C   19257.83095434 +.00000686 +00000-0 +38685-4 0  9990
2 41458 098.1011 349.1570 0167207 060.9984 300.7884 15.06010849185831
E-STAR-2
1 41459U 16025D   19257.80221083  .00001612  00000-0  85528-4 0  9997
2 41459  98.1010 348.7369 0167915  62.5299 299.2874 15.05639815185802
AAUSAT 4
1 41460U 16025E   19257.79913986 +.00002134 +00000-0 +10941-3 0  9993
2 41460 098.0960 350.2004 0157759 054.4227 307.1583 15.07599242185949
NUSAT 1
1 41557U 16033B   19257.90382000 +.00000794 +00000-0 +32367-4 0  9996
2 41557 097.4163 344.8905 0013412 353.3313 006.7745 15.27365188183556
BEESAT 4
1 41619U 16040W   19257.74141691  .00000976  00000-0  44041-4 0  9998
2 41619  97.3598 318.2944 0012974  76.7146 283.5537 15.23289278167261
PRATHAM
1 41783U 16059A   19257.75863254 +.00000046 +00000-0 +18154-4 0  9991
2 41783 098.0594 315.3583 0034905 106.6444 253.8594 14.63008551158423
ALSAT 1N
1 41789U 16059G   19257.87712384 +.00000056 +00000-0 +19620-4 0  9997
2 41789 098.0629 317.6628 0029570 095.4942 264.9616 14.64260852158550
NAYIF 1
1 42017U 17008BX  19257.91582911 +.00001017 +00000-0 +42730-4 0  9999
2 42017 097.3961 324.0753 0005430 203.9941 156.1045 15.25703671143372
MAX VALIER SAT
1 42778U 17036P   19257.75484768  .00000612  00000-0  29701-4 0  9990
2 42778  97.3464 313.4468 0010612 275.7362  84.2664 15.22127684123637
